Flag for U.S.A. Weather past 2 weeks in Jersey City, New Jersey, U.S.A.

Now
52 °F

Rain. Fog.


Feels Like: 45 °F
Forecast: 52 / 55 °F
Wind: 25 mph from North

Location: Newark International Airport

Current Time: Oct 22, 2014 at 10:40:24 PM

Latest Report: Oct 22, 2014 at 9:51 PM


Visibility: 6 mi

Pressure: 29.76 "Hg

Humidity: 86%

Dew point: 48 °F

Location of Jersey CityLocation

Historic Weather in Jersey City — Graph

°F

Jersey City temperature yesterday

Maximum temperature yesterday: 66 °F (at 3:51 PM)
Minimum temperature yesterday: 53 °F (at 1:51 AM)
Average temperature yesterday: 59 °F

Past Weeks' High & Low Weather Summary

 TemperatureHumidityPressure
High77 °F (Oct 14, 12:51 PM)97% (Oct 11, 8:51 AM)30.34 "Hg (Oct 11, 8:51 AM)
Low40 °F (Oct 20, 3:51 AM)28% (Oct 9, 2:51 PM)29.57 "Hg (Oct 18, 1:51 PM)
Average60 °F69%29.96 "Hg
* Reported Oct 7 8:51 PM — Oct 22 8:51 PM, Jersey City, Weather by CustomWeather, © 2014

Note: Actual official high and low records may vary slightly from our data, if they occured in-between our weather recording intervals... More about our weather records

Advertising

Jersey City weather history for previous 24 hours

 ConditionsComfort  
Time TempWeatherWind HumidityBarometerVisibility
8:51 PM
Oct 22
53 °FLight rain. Mostly cloudy.22 mph86%29.78 "Hg10 mi
7:51 PM53 °FRain. Fog.18 mph89%29.80 "Hg6 mi
6:51 PM52 °FRain. Fog.18 mph93%29.82 "Hg6 mi
5:51 PM53 °FRain. Fog.21 mph86%29.83 "Hg2 mi
4:51 PM56 °FMostly cloudy.23 mph72%29.83 "Hg10 mi
3:51 PM56 °FMostly cloudy.26 mph75%29.84 "Hg10 mi
2:51 PM57 °FLight rain. Mostly cloudy.24 mph78%29.85 "Hg10 mi
1:51 PM56 °FMostly cloudy.23 mph84%29.86 "Hg10 mi
12:51 PM56 °FMostly cloudy.21 mph84%29.88 "Hg10 mi
11:51 AM55 °FLight rain. Overcast.14 mph90%29.91 "Hg10 mi
10:51 AM54 °FMostly cloudy.16 mph93%29.92 "Hg10 mi
9:51 AM54 °FLight rain. Mostly cloudy.17 mph93%29.93 "Hg10 mi
8:51 AM54 °FLight rain. Mostly cloudy.20 mph93%29.93 "Hg8 mi
7:51 AM55 °FThunderstorms. Overcast.17 mph93%29.92 "Hg9 mi
6:51 AM55 °FLight rain. Fog.16 mph96%29.91 "Hg6 mi
5:51 AM56 °FLight rain. Mostly cloudy.12 mph93%29.89 "Hg9 mi
4:58 AM57 °FThunderstorms. Fog.16 mph94%29.88 "Hg4 mi
3:51 AM56 °FMostly cloudy.15 mph93%29.87 "Hg10 mi
2:51 AM56 °FMostly cloudy.13 mph90%29.87 "Hg10 mi
1:51 AM55 °FPartly cloudy.12 mph93%29.89 "Hg10 mi
12:51 AM55 °FMostly cloudy.12 mph93%29.90 "Hg10 mi
11:51 PM
Oct 21
56 °FPartly cloudy.14 mph90%29.90 "Hg10 mi
10:51 PM55 °FPartly cloudy.8 mph93%29.90 "Hg10 mi
Weather by CustomWeather, © 2014

See weather overviewHow to use our weather pages